When you browse on this site, cookies collect data to enhance your experience and personalize the content and advertising you see.
Visit our Privacy Policy to learn more. By continuing to use the site, you agree to this use of cookies and data.

Tiempo cada hora Mulchén

Hoy, 7 Agosto, Viernes

Tiempo Temperatura Precipitaciones Viento Presión Humedad
00:00 +4°C° 0 mm 2 mps 751 mmHg 87%
01:00 +4°C° 0 mm 2 mps 751 mmHg 87%
02:00 +3°C° 0 mm 2 mps 750 mmHg 86%
03:00 +3°C° 0 mm 2 mps 750 mmHg 86%
04:00 +3°C° 0 mm 2 mps 750 mmHg 86%
05:00 +3°C° 0 mm 2 mps 750 mmHg 86%
06:00 +3°C° 0 mm 2 mps 750 mmHg 85%
07:00 +3°C° 0 mm 2 mps 751 mmHg 84%
08:00 +5°C° 0 mm 2 mps 750 mmHg 78%
09:00 +7°C° 0 mm 3 mps 750 mmHg 71%
10:00 +9°C° 0 mm 3 mps 750 mmHg 64%
11:00 +10°C° 0 mm 3 mps 750 mmHg 63%
12:00 +11°C° 0 mm 3 mps 750 mmHg 61%
13:00 +12°C° 0 mm 3 mps 749 mmHg 60%
14:00 +12°C° 0 mm 2 mps 749 mmHg 64%
15:00 +12°C° 0 mm 2 mps 749 mmHg 68%
16:00 +12°C° 0 mm 2 mps 748 mmHg 72%
17:00 +9°C° 0 mm 2 mps 749 mmHg 78%
18:00 +7°C° 0 mm 2 mps 749 mmHg 84%
19:00 +6°C° 0 mm 2 mps 749 mmHg 91%
20:00 +6°C° 0 mm 1 mps 749 mmHg 91%
21:00 +6°C° 0 mm 1 mps 749 mmHg 91%
22:00 +6°C° 0 mm 1 mps 749 mmHg 91%
23:00 +6°C° 0 mm 1 mps 749 mmHg 89%

Mañana, 8 Agosto, Sábado

Tiempo Temperatura Precipitaciones Viento Presión Humedad
00:00 +6°C° 0 mm 1 mps 749 mmHg 88%
01:00 +6°C° 0 mm 1 mps 749 mmHg 86%
02:00 +6°C° 0 mm 1 mps 749 mmHg 86%
03:00 +5°C° 0 mm 1 mps 749 mmHg 87%
04:00 +5°C° 0 mm 1 mps 749 mmHg 87%
05:00 +4°C° 0 mm 0 mps 749 mmHg 86%
06:00 +4°C° 0 mm 0 mps 749 mmHg 85%
07:00 +4°C° 0 mm 0 mps 749 mmHg 85%
08:00 +6°C° 0 mm 0 mps 749 mmHg 76%
09:00 +9°C° 0 mm 0 mps 749 mmHg 68%
10:00 +13°C° 0 mm 1 mps 749 mmHg 60%
11:00 +13°C° 0 mm 1 mps 748 mmHg 58%
12:00 +14°C° 0 mm 1 mps 748 mmHg 57%
13:00 +15°C° 0 mm 1 mps 748 mmHg 56%
14:00 +15°C° 0 mm 1 mps 748 mmHg 61%
15:00 +14°C° 0 mm 1 mps 747 mmHg 66%
16:00 +14°C° 0 mm 1 mps 747 mmHg 71%
17:00 +12°C° 0 mm 1 mps 747 mmHg 77%
18:00 +10°C° 0 mm 1 mps 747 mmHg 83%
19:00 +9°C° 0 mm 1 mps 748 mmHg 89%
20:00 +7°C° 0 mm 2 mps 747 mmHg 92%
21:00 +7°C° 0 mm 2 mps 747 mmHg 94%
22:00 +6°C° 0 mm 2 mps 747 mmHg 96%
23:00 +7°C° 0 mm 2 mps 747 mmHg 96%

Pasado mañana, 9 Agosto, Domingo

Tiempo Temperatura Precipitaciones Viento Presión Humedad
00:00 +7°C° 0 mm 3 mps 747 mmHg 96%
01:00 +7°C° 0 mm 3 mps 747 mmHg 96%
02:00 +7°C° 0.4 mm 3 mps 747 mmHg 96%
03:00 +7°C° 0.4 mm 3 mps 747 mmHg 96%
04:00 +8°C° 0.4 mm 2 mps 746 mmHg 96%
05:00 +8°C° 0.3 mm 2 mps 747 mmHg 96%
06:00 +8°C° 0.3 mm 2 mps 747 mmHg 96%
07:00 +8°C° 0.3 mm 2 mps 747 mmHg 96%
08:00 +8°C° 0.3 mm 2 mps 747 mmHg 96%
09:00 +9°C° 0.3 mm 3 mps 747 mmHg 96%
10:00 +9°C° 0.3 mm 3 mps 748 mmHg 96%
11:00 +10°C° 0.3 mm 3 mps 748 mmHg 95%
12:00 +12°C° 0.3 mm 2 mps 748 mmHg 94%
13:00 +12°C° 0.3 mm 2 mps 748 mmHg 93%
14:00 +12°C° 0.4 mm 2 mps 749 mmHg 92%
15:00 +10°C° 0.4 mm 2 mps 749 mmHg 91%
16:00 +10°C° 0.4 mm 2 mps 750 mmHg 90%
17:00 +8°C° 0 mm 2 mps 750 mmHg 91%
18:00 +7°C° 0 mm 2 mps 751 mmHg 92%
19:00 +5°C° 0 mm 2 mps 751 mmHg 93%
20:00 +4°C° 0 mm 2 mps 752 mmHg 93%
21:00 +4°C° 0 mm 2 mps 752 mmHg 93%
22:00 +4°C° 0 mm 1 mps 753 mmHg 93%
23:00 +4°C° 0 mm 1 mps 753 mmHg 92%

10 Agosto, Lunes

Tiempo Temperatura Precipitaciones Viento Presión Humedad
00:00 +4°C° 0 mm 1 mps 753 mmHg 91%
01:00 +4°C° 0 mm 1 mps 753 mmHg 90%
02:00 +3°C° 0 mm 1 mps 753 mmHg 90%
03:00 +3°C° 0 mm 1 mps 753 mmHg 91%
04:00 +2°C° 0 mm 0 mps 753 mmHg 91%
05:00 +2°C° 0.1 mm 0 mps 753 mmHg 91%
06:00 +3°C° 0.1 mm 1 mps 753 mmHg 92%
07:00 +4°C° 0.1 mm 1 mps 754 mmHg 93%
08:00 +5°C° 0.1 mm 1 mps 754 mmHg 88%
09:00 +7°C° 0.1 mm 1 mps 754 mmHg 83%
10:00 +7°C° 0.1 mm 2 mps 754 mmHg 78%
11:00 +8°C° 0 mm 2 mps 754 mmHg 71%
12:00 +8°C° 0 mm 3 mps 754 mmHg 65%
13:00 +9°C° 0 mm 3 mps 754 mmHg 58%
14:00 +8°C° 0 mm 3 mps 754 mmHg 61%
15:00 +8°C° 0 mm 2 mps 753 mmHg 64%
16:00 +8°C° 0 mm 2 mps 753 mmHg 68%
17:00 +6°C° 0 mm 2 mps 754 mmHg 74%
18:00 +5°C° 0 mm 2 mps 754 mmHg 81%
19:00 +4°C° 0 mm 2 mps 754 mmHg 88%
20:00 +3°C° 0 mm 2 mps 754 mmHg 89%
21:00 +3°C° 0 mm 2 mps 754 mmHg 89%
22:00 +2°C° 0 mm 2 mps 754 mmHg 90%
23:00 +2°C° 0 mm 2 mps 754 mmHg 90%

11 Agosto, Martes

Tiempo Temperatura Precipitaciones Viento Presión Humedad
00:00 +2°C° 0 mm 2 mps 753 mmHg 90%
01:00 +1°C° 0 mm 2 mps 753 mmHg 91%
02:00 +1°C° 0 mm 2 mps 752 mmHg 90%
03:00 +1°C° 0 mm 2 mps 752 mmHg 89%
04:00 +1°C° 0 mm 2 mps 751 mmHg 88%
05:00 +1°C° 0 mm 2 mps 751 mmHg 87%
06:00 +1°C° 0 mm 2 mps 750 mmHg 85%
07:00 +1°C° 0 mm 2 mps 750 mmHg 84%
08:00 +2°C° 0 mm 3 mps 750 mmHg 75%
09:00 +4°C° 0 mm 3 mps 749 mmHg 67%
10:00 +8°C° 0 mm 3 mps 749 mmHg 58%
11:00 +7°C° 0 mm 4 mps 748 mmHg 58%
12:00 +8°C° 0 mm 4 mps 747 mmHg 57%
13:00 +10°C° 0 mm 4 mps 747 mmHg 57%
14:00 +10°C° 0 mm 4 mps 746 mmHg 60%
15:00 +9°C° 0 mm 3 mps 746 mmHg 64%
16:00 +9°C° 0 mm 3 mps 746 mmHg 67%
17:00 +7°C° 0 mm 2 mps 746 mmHg 75%
18:00 +5°C° 0 mm 2 mps 746 mmHg 83%
19:00 +4°C° 0 mm 1 mps 746 mmHg 91%
20:00 +4°C° 0 mm 1 mps 746 mmHg 92%
21:00 +3°C° 0 mm 1 mps 746 mmHg 94%
22:00 +3°C° 0 mm 1 mps 746 mmHg 95%
23:00 +2°C° 0 mm 0 mps 746 mmHg 95%

12 Agosto, Miércoles

Tiempo Temperatura Precipitaciones Viento Presión Humedad
00:00 +2°C° 0 mm 0 mps 746 mmHg 94%
01:00 +1°C° 0 mm 0 mps 746 mmHg 94%
02:00 +1°C° 0 mm 0 mps 745 mmHg 94%
03:00 +1°C° 0 mm 0 mps 745 mmHg 94%
04:00 +1°C° 0 mm 0 mps 744 mmHg 94%
05:00 +1°C° 0 mm 0 mps 744 mmHg 93%
06:00 +1°C° 0 mm 0 mps 744 mmHg 93%
07:00 +2°C° 0 mm 0 mps 744 mmHg 93%
08:00 +4°C° 0.2 mm 1 mps 744 mmHg 89%
09:00 +6°C° 0.2 mm 1 mps 743 mmHg 86%
10:00 +7°C° 0.2 mm 2 mps 743 mmHg 82%
11:00 +7°C° 0.3 mm 2 mps 743 mmHg 84%
12:00 +7°C° 0.3 mm 3 mps 742 mmHg 86%
13:00 +8°C° 0.3 mm 3 mps 742 mmHg 88%
14:00 +7°C° 0.7 mm 3 mps 742 mmHg 90%
15:00 +7°C° 0.7 mm 3 mps 742 mmHg 91%
16:00 +7°C° 0.7 mm 3 mps 742 mmHg 93%
17:00 +6°C° 0.9 mm 2 mps 742 mmHg 94%
18:00 +5°C° 0.9 mm 2 mps 743 mmHg 95%
19:00 +6°C° 0.9 mm 1 mps 743 mmHg 96%
20:00 +5°C° 0.1 mm 1 mps 744 mmHg 96%
21:00 +4°C° 0.1 mm 1 mps 744 mmHg 96%
22:00 +3°C° 0.1 mm 1 mps 745 mmHg 96%
23:00 +3°C° 0 mm 1 mps 745 mmHg 96%
Mostrar más